Temperature
26 23 22 23 23 23 23 23 22 22 23 21 19 19 18 18 18 18 18 18 19 19 19 19 19 19 19 19 19 19 19 19 18 18 18 18 17 17 17 16 16 16 16 16
23 23 24 25 25 24 24 22 21 21 22 21 19 18 18 18 17 17 18 18 19 19 19 19 19 19 19 19 19 19 19 18 18 18 17 17 17 17 16 16 16 16 15 15
24 24 26 26 25 24 23 22 21 21 21 21 20 18 17 18 18 18 19 19 19 19 20 20 19 19 19 19 19 19 19 18 18 17 17 17 16 16 16 16 16 15 15 15
24 25 26 25 25 24 22 23 23 22 20 18 19 18 17 16 17 18 18 19 19 20 20 20 20 20 20 19 19 19 18 18 17 17 17 16 16 16 15 15 15 15 15 15
24 25 25 25 25 25 22 23 22 21 18 17 18 17 17 16 17 18 18 19 20 20 20 20 20 20 20 19 19 18 18 17 17 16 16 16 15 15 15 14 14 14 14 14
24 25 25 25 26 25 23 21 19 17 17 17 17 17 17 16 17 17 18 20 21 21 21 21 20 20 19 19 18 18 17 17 16 16 15 15 15 14 14 14 13 13 13 13
23 24 25 26 25 24 22 19 18 18 17 17 17 17 17 17 18 18 19 20 21 21 21 21 20 20 19 18 18 17 17 16 16 15 15 14 14 13 13 13 13 13 12 12
23 23 25 26 25 24 23 21 19 19 18 17 17 17 17 19 19 19 20 20 21 21 21 20 20 19 19 18 17 17 16 16 15 15 14 14 13 13 13 12 12 12 12 12
22 23 26 27 27 25 24 21 20 18 17 17 17 17 19 19 19 20 20 20 20 20 20 20 19 19 18 18 17 16 16 15 14 14 13 13 13 12 12 12 12 11 11 11
23 24 24 25 25 25 24 22 19 18 18 18 18 18 17 19 19 19 19 20 20 20 20 19 19 18 18 17 16 16 15 14 14 13 13 12 12 12 11 11 11 11 11 11
23 22 23 23 24 24 24 23 20 18 18 17 18 18 20 19 19 18 19 20 20 20 19 19 18 18 17 16 16 15 14 14 13 12 12 12 11 11 11 11 10 10 10 10
23 19 20 22 23 24 23 23 20 20 19 17 17 18 21 19 19 20 20 20 20 19 19 18 18 17 16 16 15 14 13 13 12 12 11 11 11 11 10 10 10 10 10 10
23 19 20 20 21 23 24 24 21 18 17 17 17 19 20 19 19 21 20 20 19 19 18 17 17 16 15 15 14 13 13 12 12 11 11 11 10 10 10 9 9 9 9 9
22 20 20 21 21 22 23 24 23 20 18 19 18 19 19 19 19 19 20 19 19 18 17 17 16 15 15 14 13 13 12 12 11 11 11 10 10 10 9 9 9 9 9 9
22 22 23 23 24 24 24 25 24 22 20 19 19 18 18 18 18 19 19 18 18 17 17 16 15 15 14 13 13 12 12 12 11 11 10 10 9 9 9 9 8 8 8 8
21 22 23 22 24 24 24 24 24 23 22 20 19 19 19 19 19 18 18 18 17 17 16 16 15 14 14 13 13 12 12 11 11 10 10 9 9 9 9 8 8 8 8 8
20 21 21 20 22 23 22 23 23 23 22 21 19 19 19 17 17 17 18 18 17 16 16 15 14 14 13 13 12 12 11 11 10 10 9 9 9 8 8 8 8 8 8 8
20 20 18 19 20 22 21 23 23 21 20 20 19 19 18 18 18 18 18 18 17 16 16 15 14 14 13 12 12 11 11 10 10 10 9 9 8 8 8 8 8 8 8 8
20 20 19 18 20 21 22 23 22 20 20 20 19 19 19 18 17 17 18 17 17 16 15 15 14 13 13 12 12 11 11 10 10 9 9 8 8 8 8 8 8 8 8 8
19 19 19 19 20 20 21 23 23 20 19 20 20 19 19 18 15 15 17 17 17 16 15 14 14 13 12 12 11 11 10 10 9 9 9 8 8 8 8 8 8 8 8 8
21 20 19 19 19 20 22 24 23 21 19 21 21 21 20 18 17 19 18 17 17 16 15 14 14 13 12 12 11 11 10 9 9 9 8 8 8 8 8 8 8 8 8 8
20 19 19 18 19 20 22 23 21 20 22 22 22 21 21 20 19 18 18 17 17 16 15 14 13 13 12 11 11 10 10 9 9 9 8 8 8 8 8 8 8 8 8 8
20 19 18 18 19 21 24 24 24 24 23 22 22 21 21 20 19 19 18 17 16 16 15 14 13 12 12 11 11 10 10 9 9 9 8 8 8 8 8 8 8 8 8 8
21 21 20 20 20 22 24 25 24 24 23 23 22 21 21 20 19 19 18 17 16 15 15 14 13 12 12 11 10 10 9 9 9 8 8 8 8 8 8 8 8 8 8 8
21 22 20 20 21 23 24 24 24 24 23 22 22 21 21 20 19 19 18 17 16 15 14 14 13 12 11 11 10 10 9 9 9 9 8 8 8 8 8 8 8 8 8 8
20 21 20 20 21 20 23 24 24 23 23 22 22 21 21 20 20 19 18 17 16 15 14 13 13 12 11 11 10 10 9 9 9 9 9 8 8 8 8 8 9 9 8 8
Wind_Speed
1 3 3 7 5 5 2 1 2 5 6 9 11 10 8 7 7 6 4 5 5 6 5 6 7 7 6 5 5 4 4 3 3 3 2 2 1 2 2 1 1 2 2 2
3 2 8 6 2 1 2 2 2 3 6 6 9 9 6 5 3 2 2 3 2 3 4 5 6 5 5 5 5 5 5 4 4 3 2 2 1 1 1 1 1 1 2 3
3 4 3 3 2 3 2 3 4 4 3 6 5 4 3 2 2 1 1 2 2 4 6 6 6 6 6 7 7 6 6 5 4 4 2 2 2 2 3 3 2 3 4 5
2 2 3 3 1 3 2 4 5 5 5 2 2 1 3 3 2 2 3 3 6 6 6 6 7 7 7 8 7 6 6 5 4 4 3 2 2 1 2 2 3 4 4 5
4 2 2 2 2 3 4 3 4 4 5 4 4 2 4 2 2 4 4 6 8 7 7 8 7 7 6 5 5 4 4 4 3 3 4 3 1 2 2 3 4 5 5 5
4 3 2 2 1 6 8 6 7 6 5 4 2 1 4 3 5 4 5 7 7 6 6 6 4 3 2 2 3 3 4 2 2 3 3 3 3 3 3 4 5 5 4 4
6 5 2 1 3 3 5 5 4 5 5 1 2 1 6 7 7 7 7 7 5 4 4 3 2 3 3 3 4 3 4 2 1 2 2 3 4 4 5 5 5 4 4 4
2 5 5 1 3 3 3 7 7 4 3 1 2 2 7 8 7 6 6 5 3 2 2 3 4 4 4 4 3 3 3 1 1 1 3 3 3 3 4 5 4 5 4 5
3 4 4 2 2 4 2 1 6 7 4 3 2 4 7 5 4 4 4 3 3 3 5 6 5 5 5 4 3 2 2 0 2 3 4 4 4 4 5 5 5 5 5 5
4 1 5 6 7 6 4 4 6 6 5 3 2 3 5 6 5 3 3 4 4 4 5 5 4 4 3 3 2 2 2 1 2 3 4 3 4 5 5 5 6 6 6 6
4 4 5 5 3 1 4 4 5 4 6 6 3 5 5 8 7 7 6 6 7 6 6 4 3 3 3 2 1 0 1 2 3 4 4 4 5 5 5 5 6 7 6 7
3 5 2 5 5 3 3 3 6 5 2 4 5 4 2 9 8 9 8 7 7 7 5 4 3 2 1 0 1 2 3 3 4 4 4 5 5 6 6 6 7 7 7 7
5 6 4 8 9 5 1 1 5 7 6 5 5 3 2 6 6 7 8 7 6 6 4 2 1 0 1 2 3 4 4 4 5 4 5 6 6 7 7 8 8 7 8 8
5 5 5 4 8 5 3 2 4 7 5 4 7 8 5 6 6 6 7 7 6 5 4 2 1 2 3 4 4 5 5 5 5 5 5 7 7 7 8 8 8 8 8 8
5 2 2 4 5 3 3 1 3 6 8 7 8 9 9 8 8 7 6 6 6 4 3 2 2 3 4 5 5 5 5 6 5 6 6 7 7 7 7 8 8 8 8 9
4 3 3 6 7 6 3 3 4 6 7 9 9 6 5 4 4 4 6 6 5 3 3 2 3 3 4 5 5 4 5 6 5 6 7 7 7 7 8 8 8 8 9 9
2 4 2 4 7 5 3 1 4 5 5 9 7 7 5 5 6 7 7 6 5 4 4 3 4 5 5 4 4 4 5 6 6 7 7 7 7 8 8 9 9 9 9 9
7 5 4 0 6 2 6 1 10 10 6 7 8 7 8 8 7 7 7 7 6 5 4 4 4 4 4 3 4 4 5 6 6 7 7 8 8 9 9 9 9 10 9 9
8 8 4 3 1 4 5 1 6 8 4 4 8 7 6 6 4 1 4 7 7 5 4 4 4 3 3 4 4 4 6 6 7 7 8 8 9 10 10 10 11 10 9 10
6 7 6 4 3 5 7 4 6 9 2 4 8 7 7 6 2 4 5 6 5 4 3 3 3 2 3 5 4 4 6 7 7 8 9 9 9 10 11 11 11 9 9 10
2 2 4 5 5 6 7 4 5 3 8 8 8 8 8 7 7 6 6 6 5 3 2 2 1 2 4 5 3 5 6 7 8 8 9 10 9 10 10 9 8 9 9 9
6 4 4 4 3 7 7 4 6 9 7 9 9 9 9 8 7 7 7 6 4 2 2 1 1 4 5 4 3 5 7 7 7 8 9 10 10 10 10 9 9 9 8 8
3 7 6 7 8 9 7 9 9 9 9 9 9 9 10 9 7 7 6 6 4 3 3 2 2 4 5 5 4 5 6 6 7 8 9 10 11 9 9 9 9 8 7 6
4 3 3 3 7 7 7 5 7 9 9 10 10 10 10 9 9 8 6 5 4 3 3 2 2 4 5 6 5 5 6 6 7 8 9 9 10 10 10 8 7 6 6 6
6 1 1 3 6 2 2 5 8 8 8 9 8 9 11 11 9 8 7 6 5 4 3 3 3 4 6 6 5 5 5 5 7 8 9 9 9 9 9 9 7 7 6 6
4 4 4 6 8 6 6 7 8 9 9 11 10 9 9 10 10 9 7 6 5 4 3 3 4 5 6 5 5 5 5 5 7 8 8 8 8 8 8 9 9 9 8 9
Wind_Direction
326 106 236 247 217 200 243 334 360 12 27 70 74 69 48 41 48 59 59 73 94 114 130 126 125 123 116 112 111 107 100 93 87 70 63 50 8 342 353 325 249 212 202 201
14 272 247 257 242 125 81 66 60 47 48 81 82 70 53 32 25 37 74 80 104 134 145 146 144 143 142 148 150 149 151 145 137 140 151 160 185 272 296 337 339 297 256 243
186 251 297 333 36 60 60 145 168 153 90 64 98 66 30 330 333 279 130 193 196 196 183 173 169 174 172 176 181 177 180 170 163 153 122 69 42 15 8 349 326 301 282 267
241 269 335 343 341 121 189 195 175 152 118 48 65 166 282 274 292 276 270 227 219 212 197 190 189 192 195 200 192 185 181 174 169 145 123 126 135 225 257 266 276 293 288 279
279 261 290 302 230 163 175 141 121 117 105 70 24 84 287 308 278 246 245 237 223 209 200 198 198 198 197 192 179 172 162 162 162 145 143 140 174 224 256 278 294 297 297 290
280 270 230 216 170 141 126 88 61 51 68 49 327 79 287 255 237 239 243 239 228 214 205 202 197 172 158 120 120 128 135 150 163 159 163 176 212 243 272 287 293 295 294 292
338 332 302 139 67 87 116 108 53 20 25 283 295 2 263 257 245 228 229 234 229 210 186 172 147 111 96 97 110 121 133 164 201 194 217 229 236 244 254 267 269 277 283 284
2 321 315 308 180 175 176 139 147 165 181 252 335 275 265 262 252 229 219 220 223 199 141 116 115 115 110 110 105 114 129 167 237 243 260 265 261 254 257 257 250 254 254 260
192 279 311 337 89 112 70 55 147 122 101 97 283 290 297 272 255 233 218 193 169 144 123 115 111 106 101 97 94 112 121 130 280 275 274 274 275 266 263 266 262 262 261 265
163 234 330 336 33 20 111 136 82 98 126 119 200 233 234 234 224 203 173 158 156 139 119 109 105 104 102 108 107 100 121 217 273 286 284 286 282 277 273 274 275 273 271 270
83 99 330 0 35 350 8 38 89 105 136 137 173 259 228 191 175 164 166 162 156 143 131 127 128 121 116 111 116 126 294 295 297 293 288 294 291 288 288 283 279 277 274 273
69 105 344 300 285 196 173 171 129 112 55 119 129 276 279 153 160 155 158 160 153 144 145 147 141 121 100 7 293 285 286 288 285 284 285 286 284 286 286 282 279 277 275 273
94 91 38 349 343 347 331 206 136 126 108 115 128 221 227 142 151 160 161 163 157 150 142 133 116 112 270 276 277 278 283 279 281 287 290 291 290 287 283 279 276 276 273 272
107 102 145 192 242 259 294 273 140 118 124 147 165 172 191 170 167 178 173 165 158 150 149 154 208 267 269 271 271 276 276 275 284 291 292 289 286 281 278 277 277 276 273 270
96 107 266 263 281 300 305 286 144 136 158 154 173 169 196 195 187 187 169 147 133 141 149 165 213 251 267 276 280 277 276 284 289 292 289 283 280 281 283 285 283 281 278 279
94 129 16 330 324 342 354 47 84 103 118 130 136 165 202 172 141 130 136 135 140 157 173 201 242 263 276 279 277 281 283 285 287 288 286 284 286 290 290 288 284 283 280 276
131 124 86 303 318 9 337 206 110 99 129 146 154 176 164 149 152 159 160 159 166 180 202 237 260 262 269 264 261 273 277 285 296 293 291 293 293 293 290 293 295 286 282 277
150 127 131 258 14 336 262 181 111 95 70 109 126 153 169 174 181 187 182 170 176 192 217 250 262 268 263 253 264 275 289 300 301 299 299 298 297 295 292 290 288 285 281 279
151 141 136 133 204 277 294 229 137 118 89 137 137 150 156 153 112 277 210 180 184 198 214 233 245 243 246 266 277 296 306 307 305 302 301 298 298 299 298 295 291 287 285 285
100 109 128 155 176 233 243 229 138 102 130 202 152 151 151 132 96 257 222 188 186 194 212 232 254 255 278 279 283 302 304 305 302 299 298 297 296 297 296 294 290 287 284 282
93 81 157 191 215 251 237 201 113 130 220 203 168 163 160 169 199 212 191 188 185 186 207 217 274 283 277 277 284 297 299 294 291 296 301 301 299 297 293 290 289 291 291 290
181 175 202 162 180 246 236 162 169 202 189 175 170 170 168 180 182 170 172 177 176 184 240 262 279 289 284 280 284 295 293 287 295 302 305 304 302 303 307 299 297 297 295 296
175 185 183 183 210 228 209 194 197 164 168 178 173 176 163 161 169 172 176 179 193 206 245 257 256 289 294 286 278 285 286 294 304 308 307 306 306 303 299 296 297 303 301 297
287 189 146 233 260 240 218 191 172 170 173 176 170 168 160 163 171 171 175 188 204 228 247 255 272 294 295 289 283 272 281 294 305 308 308 307 307 307 306 299 291 292 293 295
255 317 52 280 276 278 215 186 177 176 167 164 165 168 166 162 168 170 177 191 205 220 239 242 256 272 280 287 286 283 283 299 307 308 307 308 304 302 305 301 290 282 270 257
244 188 183 234 236 200 221 210 174 166 176 175 169 173 172 166 168 165 176 190 195 210 226 245 263 271 280 288 287 287 286 297 305 309 310 307 306 306 305 305 306 288 271 270
Height
1497 1504 1508 1504 1501 1504 1505 1507 1509 1505 1500 1505 1513 1517 1518 1518 1517 1517 1517 1518 1516 1516 1518 1519 1520 1520 1520 1521 1521 1520 1520 1520 1519 1519 1519 1518 1517 1517 1516 1515 1514 1513 1512 1512
1501 1505 1497 1494 1495 1498 1502 1509 1511 1508 1503 1508 1516 1520 1520 1521 1520 1519 1519 1519 1519 1519 1519 1519 1519 1520 1520 1521 1520 1520 1520 1519 1519 1518 1517 1516 1516 1515 1514 1513 1512 1510 1509 1508
1502 1498 1492 1493 1494 1499 1503 1508 1509 1510 1508 1510 1516 1527 1524 1520 1520 1519 1517 1518 1519 1520 1519 1518 1519 1519 1519 1519 1519 1518 1518 1517 1516 1516 1515 1514 1513 1512 1511 1510 1508 1507 1506 1504
1496 1491 1491 1493 1495 1497 1506 1498 1500 1505 1516 1526 1523 1538 1530 1524 1521 1518 1518 1518 1518 1519 1518 1517 1517 1517 1517 1517 1516 1516 1515 1515 1514 1513 1512 1511 1510 1508 1507 1506 1504 1502 1501 1500
1497 1491 1491 1493 1491 1492 1500 1497 1502 1508 1519 1530 1530 1536 1534 1526 1524 1518 1517 1517 1516 1517 1516 1516 1515 1515 1515 1515 1514 1514 1513 1512 1511 1510 1509 1508 1506 1505 1503 1501 1499 1498 1496 1494
1492 1487 1486 1487 1485 1489 1495 1504 1511 1518 1526 1541 1536 1538 1536 1527 1522 1517 1515 1515 1515 1515 1515 1515 1515 1514 1514 1514 1513 1512 1511 1510 1509 1508 1506 1504 1503 1501 1498 1496 1494 1492 1491 1489
1498 1490 1485 1484 1490 1493 1498 1515 1532 1538 1546 1546 1535 1536 1532 1517 1514 1514 1514 1514 1514 1514 1513 1513 1513 1513 1513 1512 1511 1511 1509 1508 1507 1505 1503 1501 1499 1496 1494 1492 1489 1487 1486 1484
1511 1509 1489 1484 1487 1493 1496 1506 1529 1541 1548 1546 1538 1539 1526 1512 1511 1511 1511 1512 1512 1513 1513 1513 1513 1512 1511 1511 1510 1509 1507 1505 1504 1502 1499 1497 1495 1492 1490 1487 1485 1483 1481 1479
1510 1508 1487 1482 1481 1485 1495 1502 1505 1525 1538 1547 1542 1533 1520 1510 1510 1510 1511 1511 1511 1512 1512 1512 1511 1511 1510 1509 1508 1506 1504 1502 1500 1498 1495 1493 1490 1488 1485 1483 1480 1478 1476 1474
1497 1504 1494 1485 1481 1483 1488 1494 1509 1525 1541 1547 1541 1536 1531 1515 1512 1510 1510 1510 1511 1511 1511 1511 1510 1509 1508 1507 1505 1504 1501 1499 1497 1494 1491 1488 1485 1483 1480 1477 1475 1472 1470 1468
1492 1505 1502 1493 1494 1495 1493 1495 1505 1518 1525 1541 1547 1539 1511 1511 1509 1510 1509 1510 1510 1510 1510 1509 1509 1508 1506 1505 1503 1501 1498 1495 1493 1490 1487 1484 1481 1478 1475 1472 1469 1467 1464 1462
1492 1506 1512 1501 1490 1487 1490 1493 1502 1519 1523 1529 1539 1537 1505 1506 1507 1507 1508 1509 1509 1509 1508 1508 1507 1505 1504 1502 1500 1497 1494 1491 1489 1485 1482 1479 1476 1473 1469 1466 1464 1461 1458 1456
1492 1508 1522 1519 1509 1494 1491 1488 1494 1507 1520 1528 1538 1532 1508 1506 1506 1506 1507 1507 1507 1507 1507 1506 1505 1503 1501 1499 1496 1493 1490 1488 1484 1481 1478 1474 1471 1467 1464 1460 1457 1455 1452 1450
1488 1505 1517 1524 1516 1500 1496 1489 1490 1502 1520 1522 1522 1520 1511 1508 1507 1506 1506 1506 1506 1506 1505 1504 1502 1500 1498 1495 1493 1490 1487 1484 1480 1476 1473 1469 1465 1461 1458 1454 1451 1448 1445 1443
1489 1501 1498 1498 1492 1489 1489 1488 1488 1494 1503 1514 1514 1514 1510 1506 1505 1505 1505 1505 1505 1505 1503 1502 1500 1497 1495 1492 1489 1486 1483 1479 1475 1472 1468 1464 1460 1456 1452 1448 1445 1442 1439 1436
1490 1497 1498 1499 1490 1489 1490 1487 1487 1490 1494 1502 1507 1510 1503 1503 1503 1504 1504 1503 1503 1502 1501 1499 1496 1494 1491 1488 1485 1482 1479 1475 1471 1467 1462 1458 1454 1450 1446 1442 1438 1435 1432 1429
1493 1497 1505 1510 1498 1494 1501 1490 1489 1492 1491 1497 1505 1505 1501 1503 1502 1502 1501 1501 1500 1499 1498 1495 1493 1490 1487 1484 1481 1478 1474 1471 1466 1462 1457 1453 1449 1444 1440 1436 1432 1429 1426 1423
1490 1497 1507 1511 1509 1513 1501 1483 1484 1492 1495 1493 1496 1498 1499 1499 1499 1499 1499 1498 1497 1496 1494 1492 1489 1486 1484 1481 1478 1474 1470 1466 1461 1457 1452 1448 1443 1439 1435 1431 1427 1423 1420 1416
1479 1491 1504 1513 1514 1508 1493 1485 1485 1492 1499 1494 1495 1496 1497 1497 1498 1498 1496 1495 1494 1492 1491 1488 1486 1483 1480 1477 1474 1470 1466 1461 1457 1452 1447 1443 1438 1434 1429 1425 1421 1418 1414 1410
1479 1485 1500 1508 1512 1514 1497 1481 1480 1488 1501 1492 1491 1492 1493 1495 1500 1497 1493 1492 1491 1489 1487 1485 1482 1480 1477 1473 1470 1466 1462 1457 1452 1448 1443 1438 1434 1429 1425 1420 1416 1413 1409 1405
1489 1493 1499 1505 1509 1500 1483 1477 1480 1498 1498 1488 1487 1488 1489 1490 1491 1490 1490 1489 1488 1486 1484 1482 1479 1476 1473 1470 1466 1462 1458 1453 1449 1444 1439 1434 1429 1425 1420 1416 1413 1409 1404 1400
1491 1497 1499 1504 1508 1501 1475 1476 1481 1483 1479 1481 1482 1483 1484 1485 1486 1487 1486 1486 1485 1483 1481 1479 1476 1473 1470 1466 1463 1458 1454 1450 1445 1440 1435 1430 1425 1421 1417 1413 1409 1405 1400 1396
1483 1484 1487 1490 1489 1473 1469 1470 1470 1472 1474 1476 1478 1479 1480 1482 1483 1483 1483 1482 1481 1480 1478 1475 1473 1470 1467 1463 1459 1455 1451 1446 1441 1436 1431 1426 1422 1418 1414 1410 1405 1401 1397 1393
1476 1472 1475 1477 1472 1466 1466 1466 1467 1468 1470 1472 1474 1475 1476 1477 1479 1479 1479 1479 1478 1477 1475 1472 1469 1466 1463 1459 1456 1452 1447 1443 1438 1432 1427 1423 1419 1415 1411 1407 1403 1398 1394 1390
1474 1471 1474 1475 1468 1465 1464 1464 1465 1467 1468 1469 1471 1472 1472 1473 1474 1475 1475 1475 1474 1473 1471 1469 1466 1463 1460 1456 1452 1449 1444 1440 1434 1429 1425 1421 1416 1412 1408 1404 1400 1396 1392 1388
1469 1469 1472 1473 1464 1463 1462 1462 1462 1463 1465 1466 1467 1468 1469 1469 1470 1471 1471 1471 1471 1469 1468 1465 1462 1459 1456 1453 1449 1446 1441 1437 1432 1426 1422 1418 1414 1410 1406 1401 1397 1394 1390 1386